ORBCOMM FM29 [-] (33062 NORAD) Tracking and Keplerian Element Data

This shows tracking and keplerian element data for the satellite.

Feedback or suggestion? Click here.




ElementValue
Catalog33062
NameORBCOMM FM29 [-]
Epoch Orbit81689
Epoch Day239.08918296
Epoch Year2023
RAAN220.5767
Inclination48.4399
Eccentricity0.0006223
Argument of Perigee73.2405
Mean Anonmoly10.2407
Mean Motion14.7554393
Decay Rate1.948E-05
L11 33062U 08031C 23239.08918296 .00001948 00000+0 31276-3 0 9991
L22 33062 48.4399 220.5767 0006223 73.2405 10.2407 14.75543930816893



Live tracking and technical data element details for ORBCOMM FM29 [-] (NORAD 33062). ORBCOMM FM29 [-] can be tracked NOW for your location showing map with azimuth and elevation plus other details from your city location.







IsCatalogInMostPopularTable: catalog: 33062, numindb: 291
Update: records affected: 1



GetName: 33062 ORBCOMM FM29 [-]

Hit Count: updated at: Sat, 24 May 2025 16:51:01 GMT